Weather History for KIAH - February, 2013

Change the Weather History Date:

Saturday, February 16, 2013

  Actual Average Record
Temperature  
Mean Temperature 50 °F -  
Max Temperature 61 °F 65 °F 80 °F (2006)
Min Temperature 39 °F 46 °F 27 °F (2007)
Degree Days  
Heating Degree Days 15    
Moisture  
Dew Point 26 °F    
Average Humidity 43    
Maximum Humidity 77    
Minimum Humidity 15    
Precipitation  
Precipitation 0.00 in - - ()
Sea Level Pressure  
Sea Level Pressure 30.34 in    
Wind  
Wind Speed 6 mph (NNW)    
Max Wind Speed 14 mph    
Max Gust Speed 23 mph    
Visibility 10 miles    
Events      
Averages and records for this station are not official NWS values.
T = Trace of Precipitation, MM = Missing Value Source: NWS Daily Summary

Daily Weather History Graph

Daily Weather History Graph

Search for Another Location

Airport or City:

Trip Planner

Search our weather history database for the weather conditions in past years. The results will help you decide how hot, cold, wet, or windy it might be!

Date:

Astronomy

Feb. 16, 2013 Rise Set
Actual Time 7:00 AM CST 6:11 PM CST
Civil Twilight 6:35 AM CST 6:35 PM CST
Nautical Twilight 6:07 AM CST 7:03 PM CST
Astronomical Twilight 5:39 AM CST 7:31 PM CST
Moon 10:45 AM CST (2/16) No Moon Set
Length of Visible Light 11h 59m
Length of Day
11h 11m
Waxing Crescent, 39% of the Moon is Illuminated
Feb 16
Waxing Crescent
Feb 17
First Quarter
Feb 25
Full
Mar 4
Last Quarter
Mar 11
New

Hourly Weather History & Observations

Time (CST) Temp. Windchill Dew Point Humidity Pressure Visibility Wind Dir Wind Speed Gust Speed Precip Events Conditions
12:53 AM 48.0 °F - 28.9 °F 48% 30.35 in 10.0 mi NNW 9.2 mph - N/A   Overcast
1:53 AM 46.0 °F 41.9 °F 28.0 °F 50% 30.35 in 10.0 mi NNW 8.1 mph - N/A   Scattered Clouds
2:53 AM 44.1 °F 41.5 °F 28.0 °F 53% 30.35 in 10.0 mi NW 4.6 mph - N/A   Scattered Clouds
3:53 AM 43.0 °F 38.8 °F 27.0 °F 53% 30.37 in 10.0 mi NNW 6.9 mph - N/A   Scattered Clouds
4:53 AM 39.9 °F 37.8 °F 27.0 °F 60% 30.38 in 10.0 mi NW 3.5 mph - N/A   Clear
5:53 AM 39.0 °F 35.7 °F 27.0 °F 62% 30.39 in 10.0 mi NW 4.6 mph - N/A   Clear
6:53 AM 39.9 °F 36.7 °F 26.1 °F 58% 30.41 in 10.0 mi NW 4.6 mph - N/A   Clear
7:53 AM 41.0 °F 37.1 °F 27.0 °F 57% 30.43 in 10.0 mi NNW 5.8 mph - N/A   Clear
8:53 AM 46.0 °F 42.5 °F 24.1 °F 42% 30.45 in 10.0 mi North 6.9 mph - N/A   Clear
9:53 AM 50.0 °F - 23.0 °F 35% 30.45 in 10.0 mi NNE 8.1 mph - N/A   Clear
10:53 AM 52.0 °F - 19.9 °F 28% 30.44 in 10.0 mi NW 8.1 mph - N/A   Clear
11:53 AM 53.1 °F - 21.0 °F 29% 30.41 in 10.0 mi Calm Calm - N/A   Partly Cloudy
12:53 PM 55.9 °F - 23.0 °F 28% 30.37 in 10.0 mi Variable 6.9 mph 16.1 mph N/A   Clear
1:53 PM 60.1 °F - 24.1 °F 25% 30.33 in 10.0 mi WNW 12.7 mph - N/A   Clear
2:53 PM 61.0 °F - 23.0 °F 23% 30.30 in 10.0 mi NW 13.8 mph 19.6 mph N/A   Clear
3:53 PM 61.0 °F - 23.0 °F 23% 30.29 in 10.0 mi NW 6.9 mph 23.0 mph N/A   Clear
4:53 PM 60.1 °F - 23.0 °F 24% 30.27 in 10.0 mi NNW 9.2 mph - N/A   Clear
5:53 PM 57.9 °F - 23.0 °F 26% 30.27 in 10.0 mi NW 8.1 mph - N/A   Clear
6:53 PM 51.1 °F - 28.0 °F 41% 30.28 in 10.0 mi Calm Calm - N/A   Clear
7:53 PM 46.0 °F - 30.9 °F 56% 30.28 in 10.0 mi Calm Calm - N/A   Clear
8:53 PM 44.1 °F - 32.0 °F 63% 30.29 in 10.0 mi Calm Calm - N/A   Clear
9:53 PM 41.0 °F - 33.1 °F 73% 30.28 in 10.0 mi Calm Calm - N/A   Clear
10:53 PM 39.9 °F - 33.1 °F 77% 30.27 in 10.0 mi Calm Calm - N/A   Clear
11:53 PM 46.9 °F - 28.9 °F 50% 30.27 in 10.0 mi SSE 4.6 mph - N/A   Clear